Location: *
(50.3194°N, 7.1067°E)
Time: 01:57:26
(UTC+00:00)

Lacrosse 5 rocket - Pass Details

Date: 22 September 2019
Orbit: 459 x 639 km, 57.0° (Epoch: 15 October)

Event Time Altitude Azimuth Distance (km) Brightness Sun altitude
Rises 20:08:01 0° 249° (WSW) 2,505 5.2 -24.6°
Reaches altitude 10° 20:10:08 10° 253° (WSW) 1,647 4.2 -24.9°
Enters shadow 20:12:55 45° 281° (WNW) 680 2.1 -25.2°
